Weather History for PHKO - April, 2015

Change the Weather History Date:

Friday, April 10, 2015

  Actual Average Record
Temperature  
Mean Temperature 78 °F -  
Max Temperature 82 °F 80 °F 87 °F (1988)
Min Temperature 73 °F 69 °F 66 °F (1992)
Cooling Degree Days 12    
Growing Degree Days 28 (Base 50)    
Moisture  
Dew Point 65 °F    
Average Humidity 64    
Maximum Humidity 76    
Minimum Humidity 54    
Precipitation  
Precipitation 0.00 in - - ()
Sea Level Pressure  
Sea Level Pressure 30.02 in    
Wind  
Wind Speed 7 mph (SSE)    
Max Wind Speed 13 mph    
Max Gust Speed -    
Visibility 10 miles    
Events      
Averages and records for this station are not official NWS values.
T = Trace of Precipitation, MM = Missing Value Source: NWS Daily Summary

Daily Weather History Graph

Daily Weather History Graph

Search for Another Location

Airport or City:

Trip Planner

Search our weather history database for the weather conditions in past years. The results will help you decide how hot, cold, wet, or windy it might be!

Date:

Astronomy

Apr. 10, 2015 Rise Set
Actual Time 6:10 AM HST 6:40 PM HST
Civil Twilight 5:48 AM HST 7:03 PM HST
Nautical Twilight 5:22 AM HST 7:29 PM HST
Astronomical Twilight 4:55 AM HST 7:55 PM HST
Moon No Moon Rise 11:00 AM HST (4/10)
Length of Visible Light 13h 15m
Length of Day
12h 30m
Waning Gibbous, 63% of the Moon is Illuminated
Apr 10
Waning Gibbous
Apr 11
Last Quarter
Apr 18
New
Apr 25
First Quarter
May 3
Full

Hourly Weather History & Observations

Time (HST) Temp. Heat Index Dew Point Humidity Pressure Visibility Wind Dir Wind Speed Gust Speed Precip Events Conditions
12:53 AM 75.9 °F - 61.0 °F 60% 30.02 in 10.0 mi NNE 5.8 mph - N/A   Overcast
1:53 AM 73.9 °F - 66.0 °F 76% 30.01 in 10.0 mi SE 4.6 mph - N/A   Clear
2:53 AM 75.0 °F - 66.0 °F 73% 29.99 in 10.0 mi ESE 8.1 mph - N/A   Scattered Clouds
3:53 AM 73.9 °F - 64.0 °F 71% 29.99 in 10.0 mi ENE 9.2 mph - N/A   Clear
4:53 AM 73.0 °F - 63.0 °F 71% 29.99 in 10.0 mi ENE 5.8 mph - N/A   Clear
5:53 AM 73.0 °F - 63.0 °F 71% 30.01 in 10.0 mi East 5.8 mph - N/A   Clear
6:53 AM 73.9 °F - 64.0 °F 71% 30.02 in 10.0 mi ESE 8.1 mph - N/A   Clear
7:53 AM 78.1 °F - 64.9 °F 64% 30.03 in 10.0 mi SE 5.8 mph - N/A   Clear
8:53 AM 79.0 °F - 66.0 °F 64% 30.05 in 10.0 mi SSW 5.8 mph - N/A   Scattered Clouds
9:53 AM 80.1 °F 82.1 °F 66.0 °F 62% 30.05 in 10.0 mi SSW 5.8 mph - N/A   Mostly Cloudy
10:53 AM 82.0 °F 84.1 °F 66.0 °F 58% 30.04 in 10.0 mi SSW 6.9 mph - N/A   Clear
11:53 AM 82.0 °F 84.1 °F 66.0 °F 58% 30.03 in 10.0 mi WSW 11.5 mph - N/A   Scattered Clouds
12:53 PM 82.9 °F 85.4 °F 66.9 °F 58% 30.01 in 10.0 mi WSW 12.7 mph - N/A   Clear
1:53 PM 82.9 °F 84.6 °F 64.9 °F 54% 30.00 in 10.0 mi SW 10.4 mph - N/A   Scattered Clouds
2:53 PM 82.9 °F 85.4 °F 66.9 °F 58% 29.99 in 10.0 mi WSW 10.4 mph - N/A   Scattered Clouds
3:53 PM 81.0 °F 83.3 °F 66.9 °F 62% 29.99 in 10.0 mi WSW 8.1 mph - N/A   Partly Cloudy
4:53 PM 82.0 °F 84.1 °F 66.0 °F 58% 29.99 in 10.0 mi SSW 6.9 mph - N/A   Scattered Clouds
5:53 PM 81.0 °F 82.7 °F 64.9 °F 58% 30.00 in 10.0 mi South 8.1 mph - N/A   Scattered Clouds
6:53 PM 77.0 °F - 64.0 °F 64% 30.02 in 10.0 mi East 12.7 mph - N/A   Scattered Clouds
7:53 PM 77.0 °F - 63.0 °F 62% 30.03 in 10.0 mi ESE 10.4 mph - N/A   Mostly Cloudy
8:53 PM 78.1 °F - 64.0 °F 62% 30.05 in 10.0 mi East 5.8 mph - N/A   Scattered Clouds
9:53 PM 78.1 °F - 64.9 °F 64% 30.07 in 10.0 mi ESE 8.1 mph - N/A   Overcast
10:53 PM 78.1 °F - 64.0 °F 62% 30.06 in 10.0 mi SE 6.9 mph - N/A   Overcast
11:53 PM 78.1 °F - 66.9 °F 68% 30.05 in 10.0 mi SSE 8.1 mph - N/A   Overcast